Wind_Speed
71 71 71 71 71 71 71 71 71 70 70 69 67 65 63 62 60 59 58 56 54 53 52 51 47 45 44 44 45 44 43 42 40 40 39 39 39 40 39 37 35 35 34 33 31 29 27 26 27 29 30 29 29 28 26 24 24 23 21 19 18 18
72 72 72 72 72 72 71 71 70 69 68 66 64 61 60 59 57 55 54 52 50 49 48 47 44 43 43 44 44 43 41 41 41 40 39 39 39 39 37 36 35 35 35 33 31 30 29 29 29 31 32 31 30 29 27 25 24 23 21 20 19 18
73 73 72 71 71 70 69 68 67 65 63 61 58 55 54 54 52 50 48 47 46 46 45 43 43 43 43 43 43 42 41 40 41 40 40 40 39 37 36 35 35 35 35 34 33 32 32 32 32 33 33 31 30 29 27 26 23 21 20 20 20 19
71 70 68 66 64 63 62 62 61 59 57 54 52 50 49 48 46 44 43 42 42 43 42 41 42 42 43 43 42 41 41 40 40 40 40 39 37 35 34 33 34 34 34 35 35 35 35 35 35 34 33 31 29 28 26 25 22 20 19 19 20 20
62 59 56 55 54 55 57 57 56 54 51 49 47 44 42 41 41 40 40 39 40 41 40 40 41 42 42 42 41 41 41 40 40 39 39 38 37 35 33 32 32 33 34 35 36 37 36 36 36 34 32 30 27 25 23 22 21 20 19 19 20 21
48 46 45 45 46 48 50 50 50 49 46 42 39 38 39 39 40 40 39 39 39 40 39 39 40 41 41 41 41 41 41 40 39 39 38 37 36 35 33 32 32 33 34 35 36 37 37 36 35 33 30 27 23 21 20 20 20 21 20 20 20 20
40 40 39 38 38 39 40 40 40 39 37 36 38 40 41 41 41 40 39 39 39 39 39 39 40 40 40 41 41 41 40 40 39 37 36 35 34 33 33 33 33 33 34 35 36 37 37 36 33 30 27 22 19 17 18 19 20 21 21 20 19 18
42 42 40 38 38 38 36 33 32 33 37 41 43 43 42 42 41 40 40 39 39 39 38 39 39 40 40 40 40 40 39 38 36 34 32 31 30 30 32 32 32 32 33 34 36 36 35 32 29 24 21 18 17 17 17 18 20 20 19 19 18 18
46 45 46 46 47 46 41 38 39 43 46 47 44 42 41 41 40 40 39 39 38 38 38 39 39 39 39 39 39 38 37 35 32 29 27 26 27 29 31 31 30 30 31 32 33 32 30 26 22 19 18 18 18 17 17 17 18 18 19 20 21 21
48 50 52 54 53 50 48 48 50 50 49 46 43 41 40 39 39 39 38 38 38 38 38 38 38 38 38 38 37 35 32 29 27 25 25 26 28 29 29 28 26 26 27 28 28 26 23 21 18 16 17 18 18 17 17 18 19 21 23 24 25 24
49 52 54 56 55 53 53 53 52 51 49 46 43 41 39 38 38 37 37 38 37 37 37 36 36 36 35 34 32 29 27 25 24 24 25 26 26 26 26 24 23 23 24 23 22 20 18 17 16 17 18 19 19 20 21 23 25 27 28 29 29 27
52 53 54 55 55 55 54 54 53 51 48 45 42 39 38 37 36 37 37 36 36 35 35 35 34 32 30 28 26 25 24 23 23 23 24 24 23 22 22 21 20 19 19 18 16 15 15 15 17 19 21 23 24 25 27 29 31 32 32 31 30 27
50 52 53 54 54 54 53 52 51 48 45 43 40 38 37 36 35 35 35 35 34 33 33 32 30 27 25 23 22 22 22 22 22 22 22 21 20 20 20 19 17 16 15 14 14 15 16 18 21 23 26 28 29 30 31 32 32 31 30 28 26 25
40 42 43 44 45 45 43 42 41 41 40 39 37 36 35 34 34 34 33 32 31 30 29 27 24 22 21 20 20 21 21 22 22 21 21 20 20 20 20 18 17 15 14 14 16 18 20 22 24 26 27 27 27 27 27 28 29 28 27 27 25 24
36 35 35 34 33 33 34 34 34 35 35 34 34 33 33 32 32 31 30 29 28 27 25 22 21 20 20 20 21 21 22 22 22 22 21 20 19 19 19 18 17 15 14 14 15 16 18 19 21 22 23 23 24 24 26 28 28 27 27 26 24 22
38 35 32 31 30 30 31 31 31 31 30 31 31 31 31 30 29 27 26 26 25 23 22 20 20 20 20 20 21 21 22 23 23 22 21 19 19 18 18 19 18 15 14 13 12 12 13 15 17 19 21 23 23 24 24 24 23 23 22 21 19 17
39 36 33 32 32 30 28 28 26 26 26 27 28 28 27 27 25 25 25 24 23 21 21 21 20 20 20 20 21 22 23 23 22 22 21 20 19 18 18 19 20 18 15 12 10 9 10 13 16 18 19 20 19 18 17 16 15 14 14 13 11 10
39 36 34 33 32 30 28 26 23 22 22 23 24 24 24 24 24 24 23 22 21 21 21 21 21 21 20 20 21 23 22 22 23 22 21 21 19 18 18 20 21 20 17 12 9 8 10 14 15 15 14 13 12 12 11 9 9 8 8 8 6 6
43 40 38 36 35 33 30 27 23 21 21 21 21 22 22 23 23 22 21 21 21 22 21 21 21 21 20 21 23 24 23 24 24 23 22 20 19 19 20 20 21 21 19 15 11 10 10 11 10 10 10 11 9 9 8 5 5 4 5 6 6 7
47 44 42 39 37 36 34 30 27 26 24 24 23 24 23 23 22 22 21 22 22 22 22 21 20 20 21 23 25 25 25 25 24 23 22 20 19 20 20 21 21 20 20 18 15 11 7 7 8 10 12 13 12 10 9 5 3 3 5 7 7 9
50 47 44 41 38 37 38 36 34 32 30 28 27 26 25 23 23 23 24 24 24 23 22 22 21 22 23 25 26 27 27 26 25 24 23 21 21 20 21 21 20 20 19 19 16 10 6 7 11 13 16 16 14 11 10 7 4 4 5 9 12 13
52 51 48 45 44 42 42 42 40 38 35 32 29 27 26 26 25 25 26 26 26 25 25 24 24 24 25 26 27 27 27 27 26 25 23 23 22 21 21 21 20 19 19 19 16 10 8 11 15 17 19 17 15 12 10 8 6 5 7 10 13 16
54 54 53 53 51 49 48 47 46 44 41 37 33 30 28 28 27 27 27 27 27 27 27 27 26 26 27 27 27 27 28 28 26 25 24 23 22 21 21 21 20 20 19 18 16 11 11 15 18 20 20 19 16 13 11 9 7 6 8 11 13 16
58 57 57 56 55 54 53 53 51 49 45 42 40 36 31 30 30 29 29 29 29 29 30 29 28 28 28 28 28 28 29 28 27 26 26 24 23 22 23 23 22 21 19 18 16 13 14 17 20 22 21 20 18 15 13 12 10 7 8 11 13 16
63 60 56 53 52 52 52 52 51 50 47 44 43 40 36 34 33 32 31 31 30 31 32 31 31 30 30 29 29 29 29 29 28 28 27 26 25 25 25 24 23 20 19 18 17 15 16 19 21 22 22 21 19 17 15 15 13 10 9 10 11 13
65 61 57 52 50 50 49 49 49 48 47 45 45 43 41 39 37 36 35 34 33 33 34 34 34 34 33 32 31 31 31 30 29 29 28 28 27 27 27 25 22 19 17 17 17 16 18 20 22 22 22 21 19 17 16 16 16 15 13 11 11 12
65 62 58 54 51 51 51 51 50 48 47 46 46 45 44 43 41 39 38 36 36 35 36 37 37 37 36 35 34 34 33 32 31 30 30 30 29 28 27 25 21 19 17 17 17 17 19 20 21 22 21 20 19 18 16 15 16 16 16 16 15 14
67 65 62 58 54 53 53 53 53 51 49 49 48 47 46 45 44 43 40 38 37 36 37 38 38 38 37 36 35 35 34 33 32 32 32 31 29 28 26 24 21 19 18 18 17 18 19 20 20 20 19 19 18 17 16 15 15 15 16 18 18 18
69 67 65 62 58 57 56 56 55 53 52 52 51 50 49 48 46 45 42 40 39 38 38 37 37 37 37 36 36 35 34 34 33 33 32 31 29 27 25 24 22 21 20 19 19 19 20 19 19 19 18 17 17 17 16 16 16 16 16 16 17 18
67 66 66 64 61 59 59 59 57 56 56 55 54 53 51 49 48 46 44 43 42 40 39 39 38 36 36 35 35 35 34 34 34 33 32 31 29 27 26 25 24 24 22 21 20 20 20 20 19 18 16 15 15 16 16 16 17 17 17 16 16 16
63 62 61 61 60 59 59 60 60 58 56 54 52 52 52 51 50 48 47 46 46 45 44 44 43 41 39 38 38 37 36 35 35 33 32 31 30 28 27 27 26 25 24 23 22 22 21 20 19 18 16 15 15 15 16 16 17 18 19 18 17 16
63 62 60 58 58 57 58 58 56 55 53 51 50 49 50 51 50 50 50 50 50 50 49 48 47 45 44 43 42 41 39 38 36 35 33 32 30 28 28 28 27 26 25 24 23 23 22 21 20 18 16 15 16 16 16 17 18 19 20 20 19 18
60 62 62 61 59 57 57 56 54 53 51 50 49 48 48 48 49 49 50 51 51 50 48 47 46 45 44 43 43 41 40 38 36 34 33 31 29 28 28 27 27 25 25 24 24 24 23 21 20 19 17 17 17 17 17 17 19 20 21 22 21 20
54 55 58 59 58 57 57 58 57 56 55 54 52 52 51 50 48 47 46 46 46 45 44 43 43 42 42 41 41 39 38 36 35 33 31 30 28 28 27 27 26 25 25 24 24 24 23 22 21 20 19 18 19 20 20 20 21 22 23 23 22 21
50 51 53 55 57 58 59 60 59 57 55 53 51 50 50 48 46 44 43 43 43 42 41 40 40 39 39 39 39 38 36 34 32 30 29 28 27 27 26 26 26 25 25 24 24 24 24 23 22 21 20 21 21 22 22 22 23 24 24 23 22 21
47 46 47 50 51 52 54 55 56 54 52 49 47 45 43 43 42 41 40 41 40 39 39 39 39 38 38 37 37 36 34 32 30 28 27 27 26 26 26 26 26 26 25 24 24 25 24 23 23 22 22 23 24 24 24 24 25 25 24 23 22 21
37 35 38 40 42 45 51 55 55 52 51 50 48 46 43 42 42 41 41 40 39 39 40 40 39 37 36 35 35 34 32 31 29 27 26 26 26 26 27 27 27 26 26 25 25 25 25 24 24 24 25 26 26 26 26 27 26 24 23 22 22 22
Wind_Direction
278 279 279 280 281 282 282 283 284 285 286 287 288 289 290 290 291 291 293 294 295 296 296 296 296 296 295 295 297 299 300 301 301 302 302 302 304 305 305 305 303 303 303 303 301 299 299 299 302 302 298 295 293 292 293 294 290 287 287 291 295 297
278 279 280 281 281 282 283 284 285 286 286 286 287 288 289 289 290 292 293 295 296 296 295 295 295 294 294 295 297 298 298 299 299 300 301 302 304 305 305 303 302 301 301 300 299 299 299 300 301 298 294 291 290 288 289 290 287 285 287 290 292 295
279 280 281 282 283 283 284 284 284 284 284 284 286 287 287 289 291 293 294 296 297 295 293 294 294 294 294 295 296 296 297 297 298 299 301 302 303 304 303 302 302 300 298 296 295 295 297 298 298 294 290 288 287 286 287 287 284 283 286 289 291 294
281 282 283 284 284 284 283 282 281 281 282 283 285 286 288 290 293 294 295 296 294 292 292 294 294 293 293 294 294 295 295 297 298 300 301 302 302 302 301 300 299 297 294 291 290 290 292 294 294 291 288 287 286 284 284 285 283 282 284 289 291 292
283 284 283 283 282 281 280 279 279 280 281 283 285 288 290 293 294 294 294 293 291 291 292 292 291 292 292 292 293 294 295 297 298 300 300 301 300 299 298 297 296 294 291 289 288 288 289 291 291 289 288 286 284 282 282 281 282 283 285 288 288 288
282 283 282 281 280 279 279 279 279 279 281 283 286 290 293 295 294 293 291 290 290 290 291 290 289 290 291 292 293 294 296 297 299 300 300 300 299 299 297 295 293 291 289 288 287 287 288 289 289 288 287 284 281 278 279 280 281 283 284 283 282 284
278 280 279 278 278 279 280 280 279 279 281 285 290 293 295 294 293 291 290 289 289 289 289 288 289 290 290 291 293 294 296 298 300 301 301 300 300 299 296 293 291 289 288 287 287 287 288 289 288 287 285 282 278 276 278 279 280 281 282 281 281 283
272 273 274 275 280 284 284 282 279 280 284 289 292 293 292 291 290 289 289 288 288 287 287 288 288 289 290 291 293 295 297 299 301 302 303 303 302 300 296 294 291 290 288 287 287 287 287 287 286 285 283 280 278 277 276 276 277 280 283 285 287 288
272 270 271 276 283 286 285 281 281 284 288 290 292 291 290 288 288 287 287 286 286 286 286 287 288 289 290 292 294 296 298 300 302 305 307 308 306 302 298 296 292 289 287 286 286 285 284 284 283 282 281 280 279 276 273 274 280 286 290 292 292 291
272 270 272 277 282 283 282 283 285 287 289 291 291 290 289 287 286 285 285 285 284 285 286 287 288 289 291 293 295 296 298 301 305 309 313 312 307 302 299 296 293 290 288 286 284 283 283 283 282 280 279 278 275 272 273 278 283 287 289 291 292 292
270 269 271 275 278 280 281 283 285 287 288 290 290 289 288 286 284 284 283 283 284 285 286 286 288 289 291 293 295 296 300 304 309 315 317 314 307 303 300 299 298 294 290 286 284 283 285 284 280 276 274 272 270 270 274 277 280 281 284 288 291 291
268 268 269 271 274 276 279 281 283 285 286 287 287 286 284 283 282 282 282 282 283 284 285 286 288 290 291 292 294 298 303 308 313 318 319 315 310 308 306 306 303 298 292 290 287 283 282 279 274 271 270 270 270 271 274 277 279 281 283 287 289 287
267 267 268 269 271 274 276 279 281 283 284 284 283 282 281 280 280 280 281 281 283 284 285 287 289 289 291 293 297 301 304 308 314 319 319 320 321 319 316 313 310 307 301 294 287 280 276 274 273 274 274 275 276 277 279 281 281 283 284 285 283 280
270 271 270 272 274 276 278 280 281 282 282 281 280 279 278 278 278 279 280 281 282 283 285 287 287 289 293 296 298 300 303 308 315 317 317 320 325 327 324 321 320 317 308 296 290 286 283 283 283 283 284 284 285 286 287 286 285 284 283 280 276 274
272 275 273 276 281 283 283 283 282 282 281 280 278 277 276 276 277 278 279 280 280 282 284 284 286 292 295 295 296 299 304 310 315 315 316 318 324 329 331 331 330 324 316 307 301 298 296 295 294 293 294 296 298 298 294 290 286 283 279 275 272 269
268 271 274 278 282 283 284 283 281 280 278 276 275 274 274 275 276 276 277 277 279 280 280 283 289 293 292 292 295 301 307 311 313 315 317 320 324 330 336 341 341 336 329 322 317 314 310 306 302 302 305 307 308 304 296 289 284 279 275 272 268 263
264 268 271 275 277 278 279 279 278 276 275 274 273 273 273 273 273 273 273 275 277 277 279 285 290 289 288 291 296 303 307 310 312 314 316 319 324 331 340 346 349 347 343 336 334 329 320 313 311 314 316 317 315 305 295 288 280 275 271 268 264 257
259 261 263 267 272 274 274 275 276 276 276 275 273 272 271 271 271 271 272 274 276 277 281 287 288 285 285 290 296 302 305 309 312 313 314 317 324 331 337 342 345 348 348 348 344 334 326 321 320 325 331 333 324 307 301 294 278 273 273 277 276 263
254 254 256 260 265 267 267 270 275 277 276 276 276 275 273 271 272 271 272 276 278 279 283 286 284 282 284 290 295 299 302 308 312 312 312 316 321 325 329 333 338 341 343 344 338 330 330 328 330 346 355 355 342 323 329 321 278 276 283 284 280 270
251 251 253 254 259 261 260 264 271 274 274 277 280 281 277 272 271 271 274 278 278 279 282 281 279 281 285 289 293 296 300 306 311 312 313 314 318 320 323 329 333 335 335 334 332 325 325 333 341 351 350 345 340 337 344 336 287 285 285 276 273 270
246 248 250 252 256 258 258 261 267 271 273 276 279 279 275 271 270 272 275 277 276 278 278 276 277 282 285 288 291 296 300 305 310 313 314 315 318 320 322 327 331 332 331 329 327 315 299 315 322 327 329 327 330 336 342 333 299 274 266 260 261 265
244 245 248 251 255 258 259 261 264 270 274 276 276 274 272 270 270 273 275 275 275 278 278 277 279 282 284 286 290 294 300 304 307 311 315 317 319 321 323 327 329 330 329 326 322 304 282 297 304 310 317 318 322 331 334 328 308 275 260 251 250 255
242 244 248 253 255 257 259 261 265 269 272 272 271 271 271 270 271 274 275 273 274 278 280 280 281 282 282 284 288 292 297 301 303 307 312 315 318 321 323 325 327 327 326 322 318 300 280 288 296 301 309 313 318 325 324 318 310 291 268 253 249 252
244 246 251 254 255 256 257 260 263 266 267 268 268 268 269 270 271 272 272 271 272 277 280 282 282 281 281 282 286 290 294 297 298 302 306 309 312 316 320 322 325 326 323 317 312 299 284 287 293 298 305 311 314 318 316 311 311 304 277 259 254 254
247 249 252 254 255 256 257 258 260 261 263 264 265 266 269 272 272 270 270 270 273 276 278 280 280 280 280 282 286 289 292 294 295 297 300 302 305 310 314 318 323 325 321 315 309 298 290 294 299 299 303 308 311 312 311 309 311 308 291 272 264 261
246 248 251 254 255 256 256 257 258 259 260 261 263 265 269 272 272 270 271 273 275 277 278 278 279 279 279 281 285 288 289 291 293 294 296 298 300 304 309 315 320 323 319 313 307 298 296 303 307 305 304 307 308 307 304 304 308 307 300 292 287 281
245 247 249 253 256 257 258 258 259 261 261 261 262 265 268 270 271 272 273 275 278 279 279 280 279 279 279 281 284 286 288 289 290 291 294 296 298 302 307 312 316 317 315 311 305 299 301 308 312 310 308 308 306 304 300 297 300 303 304 302 297 291
244 246 248 251 255 257 258 259 261 262 263 264 266 268 270 272 274 274 275 277 279 280 281 281 280 279 279 281 284 286 287 288 289 291 293 295 298 302 306 309 311 311 310 307 302 299 301 308 311 310 309 309 307 304 299 294 293 295 301 302 297 289
245 247 249 252 254 257 258 259 261 264 267 269 270 272 273 275 275 275 276 278 279 280 281 281 281 280 280 281 283 285 286 288 289 291 293 296 299 301 303 305 306 306 305 303 299 296 298 303 306 307 307 308 307 306 302 297 292 289 290 295 295 290
245 248 251 253 255 257 259 261 263 266 269 271 272 273 274 274 274 274 276 277 278 279 279 280 281 281 281 281 283 285 287 288 290 291 294 296 298 299 299 300 302 303 303 301 297 294 294 297 299 300 302 303 303 304 304 302 297 291 285 283 285 287
243 247 251 254 256 259 261 263 265 267 269 272 274 276 276 276 275 276 276 277 278 278 278 279 280 280 280 281 282 284 286 287 289 290 292 294 295 295 295 296 299 301 301 300 295 291 292 293 294 294 294 296 296 297 301 302 300 295 288 280 275 273
243 245 248 251 254 257 260 262 264 267 270 273 275 276 277 278 278 279 279 279 279 279 279 278 279 278 278 279 280 282 283 284 286 288 289 290 291 291 292 293 296 299 300 298 294 291 290 290 290 289 288 289 289 291 295 297 298 297 290 283 277 272
245 246 248 251 253 256 258 260 262 264 266 268 269 269 269 272 274 276 277 278 279 279 279 278 278 278 278 278 279 280 281 281 282 284 285 286 287 288 289 291 294 296 297 296 294 291 289 288 287 285 283 284 286 289 292 293 295 296 290 282 278 275
246 248 250 253 256 259 261 262 264 265 265 266 267 265 264 266 269 272 274 275 276 276 277 277 276 276 276 276 277 278 277 277 278 280 281 282 284 286 287 289 291 292 294 294 292 289 286 286 285 281 279 281 285 289 292 293 296 296 291 283 279 277
245 248 251 254 257 260 262 264 266 268 268 269 269 268 267 268 270 271 272 272 273 274 273 272 271 271 273 273 274 273 273 273 275 276 278 280 282 284 285 286 288 288 289 290 288 284 283 283 281 278 278 281 286 290 292 295 299 298 292 285 281 281
245 250 257 260 260 260 260 262 264 266 268 269 270 270 269 269 270 270 269 269 270 269 268 267 268 268 269 269 269 269 269 270 272 274 277 279 280 281 283 284 284 283 283 284 282 280 279 278 276 276 277 282 287 290 292 297 300 298 293 286 282 282
247 254 264 267 264 261 259 261 263 265 268 270 271 272 272 271 270 269 269 269 268 266 266 267 267 267 267 267 267 268 268 269 271 273 275 276 277 279 281 281 280 278 277 278 277 275 274 274 274 274 278 283 288 290 294 298 300 296 290 283 279 281
Height
10791 10791 10791 10791 10790 10790 10789 10788 10788 10788 10789 10789 10789 10790 10790 10789 10789 10789 10789 10789 10789 10788 10786 10784 10783 10782 10781 10780 10781 10780 10779 10778 10777 10777 10775 10773 10770 10767 10764 10761 10759 10757 10756 10756 10756 10756 10757 10757 10756 10755 10753 10752 10751 10750 10749 10749 10748 10747 10747 10746 10745 10745
10785 10785 10785 10785 10784 10784 10783 10783 10783 10783 10783 10783 10784 10785 10784 10784 10785 10785 10785 10785 10785 10783 10781 10780 10779 10777 10777 10776 10776 10776 10776 10774 10773 10772 10771 10769 10766 10763 10760 10758 10756 10754 10752 10752 10751 10752 10752 10753 10753 10751 10749 10748 10747 10746 10746 10746 10745 10744 10744 10743 10742 10742
10779 10780 10780 10779 10778 10778 10777 10777 10777 10777 10777 10777 10779 10780 10780 10780 10781 10781 10781 10781 10781 10778 10776 10776 10775 10773 10772 10771 10771 10771 10771 10771 10769 10768 10766 10765 10763 10760 10757 10754 10752 10750 10749 10748 10747 10747 10748 10748 10748 10747 10746 10744 10744 10743 10742 10742 10742 10741 10741 10740 10740 10739
10774 10774 10774 10773 10772 10771 10770 10770 10770 10770 10771 10772 10774 10775 10776 10776 10777 10777 10778 10778 10777 10774 10773 10772 10771 10770 10768 10767 10766 10766 10766 10766 10765 10764 10762 10760 10759 10757 10754 10751 10749 10747 10745 10744 10743 10743 10744 10744 10744 10743 10742 10741 10740 10739 10738 10738 10738 10738 10738 10738 10737 10736
10769 10769 10768 10766 10765 10764 10763 10763 10764 10765 10766 10768 10769 10770 10771 10772 10773 10773 10773 10774 10772 10770 10770 10769 10767 10766 10764 10763 10762 10761 10761 10761 10761 10760 10758 10756 10754 10753 10751 10748 10746 10744 10742 10741 10739 10739 10739 10740 10739 10739 10738 10737 10736 10736 10735 10735 10734 10735 10735 10735 10734 10733
10764 10763 10761 10760 10758 10757 10757 10758 10759 10760 10762 10763 10765 10766 10767 10767 10768 10768 10768 10768 10768 10767 10766 10765 10763 10762 10760 10758 10757 10756 10756 10756 10756 10756 10754 10753 10750 10748 10746 10744 10742 10740 10738 10737 10736 10735 10735 10736 10735 10735 10734 10734 10733 10733 10732 10732 10731 10731 10732 10731 10730 10729
10759 10758 10756 10754 10753 10752 10753 10753 10754 10756 10758 10759 10761 10762 10762 10762 10762 10762 10763 10763 10762 10762 10761 10760 10759 10757 10755 10753 10752 10752 10751 10751 10751 10751 10750 10749 10747 10744 10742 10740 10738 10736 10735 10733 10732 10731 10731 10732 10732 10731 10730 10730 10730 10730 10730 10729 10729 10728 10728 10727 10727 10726
10753 10752 10750 10749 10748 10749 10750 10750 10751 10753 10754 10755 10756 10757 10757 10757 10756 10756 10757 10757 10757 10757 10756 10755 10754 10752 10751 10749 10748 10747 10747 10747 10747 10746 10746 10744 10743 10740 10738 10736 10734 10732 10731 10729 10728 10728 10728 10728 10728 10727 10727 10727 10727 10727 10727 10727 10726 10725 10725 10724 10724 10723
10748 10746 10744 10743 10743 10744 10746 10747 10747 10748 10749 10750 10751 10752 10752 10751 10751 10751 10752 10752 10752 10752 10752 10751 10749 10748 10746 10745 10744 10743 10742 10742 10742 10742 10741 10740 10738 10736 10734 10732 10730 10728 10727 10726 10725 10725 10724 10724 10724 10724 10724 10723 10723 10724 10724 10724 10723 10723 10722 10721 10720 10720
10742 10740 10738 10737 10738 10739 10740 10741 10742 10742 10743 10745 10746 10746 10746 10746 10746 10747 10747 10747 10747 10747 10747 10746 10745 10744 10742 10741 10740 10739 10739 10739 10739 10738 10737 10736 10734 10732 10730 10728 10726 10725 10724 10723 10722 10722 10721 10721 10721 10721 10721 10721 10721 10721 10721 10721 10720 10719 10718 10717 10717 10716
10735 10733 10732 10732 10732 10733 10734 10736 10736 10737 10738 10739 10740 10741 10741 10741 10741 10742 10742 10743 10743 10743 10742 10742 10741 10740 10739 10737 10736 10736 10735 10736 10736 10735 10734 10732 10730 10728 10726 10725 10723 10722 10721 10720 10720 10719 10718 10718 10718 10718 10718 10718 10718 10718 10717 10717 10716 10716 10715 10714 10713 10713
10727 10726 10726 10727 10727 10729 10730 10731 10732 10732 10734 10734 10735 10736 10736 10736 10737 10737 10738 10738 10738 10738 10738 10738 10738 10737 10736 10735 10734 10733 10733 10733 10733 10732 10731 10730 10728 10726 10724 10722 10720 10719 10719 10718 10717 10717 10716 10716 10716 10715 10715 10714 10714 10714 10714 10713 10712 10712 10711 10710 10710 10709
10719 10720 10721 10722 10723 10725 10726 10727 10727 10728 10729 10729 10730 10731 10731 10732 10732 10733 10734 10734 10734 10734 10735 10735 10734 10734 10733 10732 10731 10731 10731 10731 10731 10730 10729 10727 10726 10724 10722 10720 10718 10717 10716 10716 10715 10715 10714 10714 10713 10712 10711 10711 10710 10710 10710 10709 10708 10708 10707 10707 10706 10705
10713 10715 10716 10717 10719 10721 10722 10723 10723 10724 10724 10725 10726 10726 10727 10727 10728 10729 10730 10730 10730 10731 10731 10731 10731 10731 10730 10730 10729 10729 10729 10729 10728 10728 10727 10725 10724 10722 10720 10718 10716 10715 10714 10714 10713 10713 10712 10711 10710 10708 10707 10707 10707 10707 10706 10705 10704 10704 10703 10702 10702 10702
10709 10710 10711 10713 10715 10717 10718 10718 10719 10720 10720 10721 10721 10722 10723 10724 10725 10725 10726 10726 10727 10727 10728 10728 10728 10728 10728 10727 10727 10727 10727 10726 10726 10725 10724 10724 10723 10721 10719 10716 10714 10713 10712 10711 10711 10710 10709 10708 10706 10705 10704 10703 10703 10703 10702 10700 10700 10699 10698 10698 10698 10699
10704 10706 10708 10710 10712 10713 10714 10714 10715 10715 10716 10716 10717 10718 10719 10720 10721 10722 10722 10723 10724 10724 10725 10725 10725 10726 10726 10725 10725 10725 10724 10724 10724 10723 10722 10721 10721 10719 10717 10715 10713 10712 10710 10709 10708 10707 10706 10705 10703 10702 10700 10700 10699 10698 10697 10696 10695 10695 10694 10695 10695 10696
10701 10703 10704 10706 10708 10710 10710 10710 10710 10711 10712 10713 10714 10715 10716 10717 10718 10719 10719 10720 10721 10721 10722 10722 10723 10723 10723 10723 10722 10722 10722 10722 10721 10720 10719 10719 10718 10717 10715 10714 10712 10711 10709 10707 10706 10705 10704 10702 10700 10699 10698 10697 10696 10695 10693 10692 10692 10692 10692 10692 10693 10694
10699 10700 10701 10703 10705 10707 10707 10707 10707 10708 10709 10709 10711 10712 10713 10714 10715 10715 10716 10717 10718 10719 10719 10720 10721 10721 10721 10721 10720 10720 10720 10720 10719 10718 10717 10716 10716 10715 10714 10713 10712 10710 10709 10707 10705 10704 10702 10700 10698 10697 10697 10696 10694 10692 10691 10691 10690 10690 10690 10690 10691 10692
10696 10697 10698 10700 10701 10703 10703 10703 10704 10705 10706 10707 10708 10710 10711 10711 10712 10713 10714 10715 10716 10716 10717 10717 10718 10719 10719 10719 10718 10717 10718 10717 10717 10715 10714 10714 10713 10713 10712 10711 10711 10710 10708 10706 10705 10703 10701 10698 10697 10697 10696 10695 10693 10691 10691 10690 10689 10688 10688 10688 10689 10690
10692 10693 10695 10697 10698 10699 10699 10700 10700 10701 10703 10704 10706 10707 10709 10709 10710 10711 10711 10712 10713 10714 10714 10715 10716 10716 10716 10716 10715 10715 10715 10715 10714 10713 10712 10712 10712 10711 10710 10709 10709 10708 10707 10705 10704 10702 10700 10698 10696 10696 10695 10694 10692 10691 10690 10689 10687 10687 10687 10687 10687 10688
10687 10689 10691 10693 10695 10695 10695 10696 10697 10698 10700 10702 10704 10705 10706 10707 10707 10708 10709 10710 10710 10711 10712 10712 10713 10713 10713 10713 10713 10712 10712 10712 10712 10711 10710 10710 10709 10709 10708 10707 10706 10706 10705 10704 10702 10700 10699 10697 10696 10695 10694 10694 10692 10690 10689 10687 10686 10686 10685 10685 10685 10686
10684 10685 10687 10689 10691 10692 10692 10693 10694 10695 10697 10699 10701 10702 10703 10704 10705 10706 10706 10707 10708 10708 10709 10709 10710 10710 10710 10710 10710 10710 10709 10709 10709 10708 10707 10707 10707 10706 10705 10704 10704 10703 10703 10702 10700 10699 10697 10696 10694 10694 10693 10692 10691 10690 10688 10686 10685 10684 10684 10684 10684 10684
10680 10682 10683 10686 10688 10689 10689 10690 10691 10692 10694 10697 10699 10700 10701 10702 10702 10703 10704 10704 10705 10705 10706 10706 10707 10707 10707 10707 10707 10706 10706 10706 10706 10706 10705 10704 10704 10704 10703 10702 10701 10701 10700 10699 10698 10697 10696 10694 10693 10692 10692 10691 10690 10688 10686 10685 10684 10683 10683 10683 10682 10682
10677 10679 10680 10682 10684 10685 10686 10686 10688 10689 10691 10694 10696 10696 10697 10699 10699 10700 10700 10701 10701 10702 10703 10703 10704 10704 10704 10703 10703 10703 10703 10703 10703 10703 10702 10702 10702 10701 10700 10700 10699 10698 10697 10697 10695 10694 10694 10692 10691 10690 10690 10689 10688 10686 10684 10683 10683 10682 10681 10681 10681 10681
10673 10674 10675 10677 10679 10680 10681 10683 10684 10686 10688 10690 10691 10692 10694 10695 10696 10696 10696 10697 10698 10699 10699 10700 10700 10700 10700 10700 10700 10699 10699 10700 10700 10700 10699 10699 10699 10698 10698 10697 10696 10695 10694 10694 10693 10692 10691 10690 10689 10688 10688 10687 10687 10685 10682 10680 10680 10680 10680 10679 10679 10679
10669 10670 10671 10672 10674 10675 10676 10678 10680 10682 10684 10686 10687 10688 10690 10691 10692 10692 10693 10693 10694 10695 10696 10696 10697 10697 10697 10697 10696 10696 10696 10696 10697 10696 10696 10695 10695 10695 10695 10694 10693 10692 10692 10691 10690 10689 10689 10688 10687 10686 10686 10685 10685 10683 10681 10679 10678 10678 10678 10677 10677 10677
10664 10666 10666 10668 10669 10670 10671 10673 10675 10678 10680 10681 10682 10684 10686 10687 10688 10688 10689 10689 10690 10691 10692 10692 10693 10693 10693 10693 10693 10693 10693 10693 10693 10693 10692 10692 10691 10691 10691 10690 10690 10689 10689 10688 10687 10687 10686 10686 10685 10684 10683 10683 10682 10681 10679 10678 10676 10676 10675 10675 10675 10674
10660 10661 10662 10663 10664 10665 10667 10669 10670 10673 10674 10675 10678 10680 10681 10682 10683 10684 10685 10685 10686 10687 10687 10688 10688 10689 10690 10690 10689 10689 10689 10689 10690 10689 10689 10688 10688 10687 10687 10687 10686 10686 10686 10685 10685 10684 10683 10683 10682 10682 10681 10680 10679 10678 10677 10676 10674 10674 10673 10673 10672 10672
10655 10657 10658 10659 10660 10661 10662 10664 10665 10668 10669 10670 10673 10675 10677 10678 10679 10680 10680 10681 10681 10682 10683 10684 10684 10685 10685 10686 10686 10685 10685 10685 10685 10685 10685 10684 10684 10683 10683 10683 10683 10683 10682 10682 10681 10681 10680 10680 10680 10679 10679 10678 10677 10676 10675 10673 10672 10671 10670 10670 10670 10670
10651 10653 10653 10654 10656 10657 10658 10660 10662 10663 10664 10665 10668 10670 10672 10674 10674 10675 10676 10676 10677 10678 10679 10680 10680 10681 10682 10682 10682 10682 10682 10681 10681 10681 10681 10681 10680 10679 10679 10679 10679 10679 10679 10678 10678 10678 10677 10677 10677 10677 10676 10676 10674 10673 10672 10671 10669 10668 10667 10667 10667 10667
10648 10649 10649 10650 10651 10653 10654 10655 10657 10658 10659 10661 10663 10665 10667 10668 10669 10670 10671 10671 10672 10673 10675 10675 10676 10677 10677 10678 10678 10678 10677 10677 10677 10677 10677 10676 10676 10675 10675 10675 10675 10675 10675 10675 10674 10674 10674 10674 10674 10674 10673 10673 10672 10671 10670 10668 10667 10665 10664 10663 10663 10663
10643 10644 10645 10646 10647 10648 10649 10651 10653 10654 10655 10657 10659 10660 10661 10662 10663 10664 10665 10666 10667 10668 10670 10670 10671 10672 10672 10673 10673 10673 10673 10672 10672 10672 10672 10672 10672 10671 10671 10671 10671 10671 10671 10671 10670 10670 10671 10671 10670 10670 10670 10670 10669 10668 10667 10666 10664 10663 10661 10660 10659 10659
10637 10638 10640 10641 10642 10644 10645 10647 10649 10650 10651 10653 10655 10656 10657 10657 10658 10658 10659 10660 10661 10663 10664 10665 10666 10666 10666 10667 10668 10668 10668 10668 10667 10668 10668 10667 10667 10667 10667 10666 10667 10667 10667 10667 10666 10666 10667 10667 10667 10667 10667 10666 10665 10665 10664 10664 10662 10660 10658 10656 10655 10655
10633 10635 10636 10637 10638 10639 10641 10643 10644 10645 10647 10649 10650 10651 10652 10653 10653 10653 10654 10655 10655 10657 10658 10659 10660 10660 10661 10662 10662 10663 10663 10663 10663 10663 10663 10663 10662 10662 10662 10662 10662 10663 10663 10663 10662 10662 10662 10663 10663 10663 10663 10662 10662 10661 10660 10660 10659 10657 10655 10653 10652 10652
10630 10632 10634 10635 10637 10637 10637 10638 10639 10640 10642 10643 10644 10644 10646 10647 10647 10648 10649 10649 10650 10652 10653 10653 10654 10656 10656 10657 10657 10657 10658 10658 10659 10659 10659 10658 10658 10658 10658 10657 10658 10658 10658 10659 10658 10658 10658 10658 10659 10659 10659 10658 10658 10657 10656 10656 10655 10653 10652 10650 10649 10649
10630 10635 10636 10637 10638 10637 10634 10632 10633 10635 10636 10637 10637 10638 10640 10641 10642 10642 10643 10644 10645 10646 10647 10647 10649 10651 10652 10652 10652 10652 10652 10653 10654 10655 10655 10654 10654 10653 10653 10653 10653 10653 10654 10654 10654 10654 10654 10654 10654 10654 10654 10654 10653 10653 10653 10652 10651 10649 10648 10647 10646 10645
10635 10640 10640 10638 10636 10632 10627 10625 10626 10629 10630 10629 10630 10632 10635 10635 10636 10637 10638 10639 10640 10641 10641 10642 10644 10646 10647 10647 10646 10646 10647 10648 10649 10650 10650 10650 10649 10649 10649 10649 10649 10649 10649 10650 10650 10650 10650 10650 10650 10650 10650 10649 10649 10649 10649 10648 10647 10646 10645 10644 10643 10642